Surface/Precipitation History
01/22/2017 05:42  to  1/23/2017 05:42
Change End Date:
Date/Time
(MST)
Sf
Temp Chem Water Layer Surface Precipitation
Sfc Pvt Sub Frz Factor Pct Dpth DpthThk IcePct Cond Salin FI Type Intens Accum Rate
01/23/2017 05:28 Ice Warning 23.7F - - 32F 75 0% - - 100% 2 mhos 0 - None None - -
01/23/2017 05:21 Ice Warning 23.7F - - 32F 75 0% - - 100% 2 mhos 0 - None None - -
01/23/2017 05:13 Ice Warning 23.7F - - 32F 70 0% - - 100% 2 mhos 0 - None None - -
01/23/2017 05:11 Ice Warning 23.7F - - 32F 70 0% - - 100% 2 mhos 0 - None None - -
01/23/2017 05:01 Ice Warning 23.9F - - 32F 70 0% - - 100% 2 mhos 0 - None None - -
01/23/2017 04:58 Ice Warning 23.9F - - 32F 70 0% - - 100% 2 mhos 0 - None None - -
01/23/2017 04:51 Ice Warning 23.9F - - 32F 65 0% - - 100% 2 mhos 0 - None None - -
01/23/2017 04:43 Ice Warning 23.9F - - 32F 65 0% - - 100% 2 mhos 0 - None None - -
01/23/2017 04:41 Ice Warning 23.9F - - 32F 65 0% - - 100% 2 mhos 0 - None None - -
01/23/2017 04:31 Ice Warning 24.1F - - 32F 65 0% - - 100% 2 mhos 0 - None None - -
01/23/2017 04:28 Ice Warning 24.1F - - 32F 65 0% - - 100% 2 mhos 0 - None None - -
01/23/2017 04:21 Ice Warning 24.1F - - 32F 70 0% - - 100% 2 mhos 0 - None None - -
01/23/2017 04:13 Ice Warning 24.3F - - 32F 70 0% - - 100% 2 mhos 0 - None None - -
01/23/2017 04:11 Ice Warning 24.3F - - 32F 75 0% - - 100% 2 mhos 0 - None None - -
01/23/2017 04:01 Ice Warning 24.3F - - 32F 70 0% - - 100% 2 mhos 0 - None None - -
Date/Time
(MST)
Sf
Temp Chem Water Layer Surface Precipitation
Sfc Pvt Sub Frz Factor Pct Dpth DpthThk IcePct Cond Salin FI Type Intens Accum Rate
01/23/2017 03:58 Ice Warning 24.3F - - 32F 75 0% - - 100% 2 mhos 0 - None None - -
01/23/2017 03:51 Ice Warning 24.4F - - 32F 70 0% - - 100% 2 mhos 0 - None None - -
01/23/2017 03:43 Ice Warning 24.4F - - 32F 75 0% - - 100% 2 mhos 0 - None None - -
01/23/2017 03:41 Ice Warning 24.4F - - 32F 65 0% - - 100% 2 mhos 0 - None None - -
01/23/2017 03:31 Ice Warning 24.4F - - 32F 65 0% - - 100% 2 mhos 0 - None None - -
01/23/2017 03:28 Ice Warning 24.4F - - 32F 70 0% - - 100% 2 mhos 0 - None None - -
01/23/2017 03:21 Ice Warning 24.6F - - 32F 85 0% - - 100% 2 mhos 0 - None None - -
01/23/2017 03:13 Ice Warning 24.6F - - 32F 75 0% - - 100% 2 mhos 0 - None None - -
01/23/2017 03:11 Ice Warning 24.6F - - 32F 75 0% - - 100% 2 mhos 0 - None None - -
01/23/2017 03:00 Ice Warning 24.6F - - 32F 75 0% - - 100% 2 mhos 0 - None None - -
01/23/2017 02:58 Ice Warning 24.6F - - 32F 70 0% - - 100% 2 mhos 0 - None None - -
01/23/2017 02:50 Ice Warning 24.6F - - 32F 70 0% - - 100% 2 mhos 0 - None None - -
01/23/2017 02:43 Ice Warning 24.6F - - 32F 70 0% - - 100% 2 mhos 0 - None None - -
01/23/2017 02:40 Ice Warning 24.6F - - 32F 70 0% - - 100% 2 mhos 0 - None None - -
01/23/2017 02:30 Ice Warning 24.6F - - 32F 80 0% - - 100% 2 mhos 0 - Yes - - -
Date/Time
(MST)
Sf
Temp Chem Water Layer Surface Precipitation
Sfc Pvt Sub Frz Factor Pct Dpth DpthThk IcePct Cond Salin FI Type Intens Accum Rate
01/23/2017 02:29 Ice Warning 24.6F - - 32F 65 0% - - 100% 2 mhos 0 - None None - -
01/23/2017 02:20 Ice Warning 24.6F - - 32F 85 0% - - 100% 2 mhos 0 - None None - -
01/23/2017 02:13 Ice Warning 24.8F - - 32F 90 0% - - 100% 2 mhos 0 - Yes - - -
01/23/2017 02:10 Ice Warning 24.8F - - 32F 95 0% - - 100% 2 mhos 0 - None None - -
01/23/2017 02:00 Ice Warning 25.0F - - 32F 85 0% - - 100% 2 mhos 0 - Yes - - -
01/23/2017 01:58 Ice Warning 25.0F - - 32F 85 0% - - 100% 2 mhos 0 - Yes - - -
01/23/2017 01:50 Ice Warning 25.0F - - 32F 85 0% - - 100% 2 mhos 0 - Yes - - -
01/23/2017 01:43 Ice Warning 25.0F - - 32F 95 0% - - 100% 2 mhos 0 - Yes - - -
01/23/2017 01:40 Ice Warning 25.0F - - 32F 85 0% - - 100% 2 mhos 0 - Yes - - -
01/23/2017 01:30 Ice Warning 25.0F - - 32F 90 0% - - 100% 2 mhos 0 - Yes - - -
01/23/2017 01:28 Ice Warning 25.2F - - 32F 90 0% - - 100% 2 mhos 0 - Yes - - -
01/23/2017 01:20 Ice Warning 25.2F - - 32F 85 0% - - 100% 2 mhos 0 - Yes - - -
01/23/2017 01:13 Ice Warning 25.5F - - 32F 90 0% - - 100% 2 mhos 0 - None None - -
01/23/2017 01:10 Ice Warning 25.5F - - 32F 90 0% - - 100% 2 mhos 0 - Yes - - -
01/23/2017 01:00 Ice Warning 25.5F - - 32F 95 0% - - 100% 2 mhos 0 - Yes - - -
Date/Time
(MST)
Sf
Temp Chem Water Layer Surface Precipitation
Sfc Pvt Sub Frz Factor Pct Dpth DpthThk IcePct Cond Salin FI Type Intens Accum Rate
01/23/2017 00:58 Ice Warning 25.5F - - 32F 95 0% - - 100% 2 mhos 0 - Yes - - -
01/23/2017 00:50 Ice Warning 25.7F - - 32F 95 0% - - 100% 2 mhos 0 - Yes - - -
01/23/2017 00:43 Ice Warning 25.7F - - 32F 95 0% - - 100% 2 mhos 0 - Yes - - -
01/23/2017 00:40 Ice Warning 25.7F - - 32F 90 0% - - 100% 2 mhos 0 - Yes - - -
01/23/2017 00:30 Ice Warning 25.7F - - 32F 90 0% - - 100% 2 mhos 0 - Yes - - -
01/23/2017 00:28 Ice Warning 25.7F - - 32F 95 0% - - 100% 2 mhos 0 - Yes - - -
01/23/2017 00:20 Ice Warning 25.7F - - 32F 95 0% - - 100% 1 mhos 0 - Yes - - -
01/23/2017 00:13 Ice Warning 25.7F - - 32F 95 0% - - 100% 1 mhos 0 - Yes - - -
01/23/2017 00:10 Ice Warning 25.7F - - 32F 90 0% - - 100% 1 mhos 0 - Yes - - -
01/22/2017 23:59 Ice Warning 25.7F - - 32F 90 0% - - 100% 1 mhos 0 - Yes - - -
01/22/2017 23:58 Ice Warning 25.7F - - 32F 90 0% - - 100% 1 mhos 0 - Yes - - -
01/22/2017 23:49 Ice Warning 25.5F - - 32F 90 0% - - 100% 1 mhos 0 - Yes - - -
01/22/2017 23:43 Ice Warning 25.5F - - 32F 85 0% - - 100% 1 mhos 0 - Yes - - -
01/22/2017 23:39 Ice Warning 25.5F - - 32F 90 0% - - 100% 1 mhos 0 - Yes - - -
01/22/2017 23:29 Ice Warning 25.5F - - 32F 95 0% - - 100% 1 mhos 0 - Yes - - -
Date/Time
(MST)
Sf
Temp Chem Water Layer Surface Precipitation
Sfc Pvt Sub Frz Factor Pct Dpth DpthThk IcePct Cond Salin FI Type Intens Accum Rate
01/22/2017 23:28 Ice Warning 25.5F - - 32F 95 0% - - 100% 1 mhos 0 - Yes - - -
01/22/2017 23:19 Ice Warning 25.5F - - 32F 90 0% - - 100% 1 mhos 0 - Yes - - -
01/22/2017 23:13 Ice Warning 25.5F - - 32F 85 0% - - 100% 1 mhos 0 - None None - -
01/22/2017 23:09 Ice Warning 25.5F - - 32F 90 0% - - 100% 1 mhos 0 - Yes - - -
01/22/2017 22:59 Ice Warning 25.5F - - 32F 90 0% - - 100% 1 mhos 0 - Yes - - -
01/22/2017 22:58 Ice Warning 25.5F - - 32F 90 0% - - 100% 1 mhos 0 - Yes - - -
01/22/2017 22:49 Ice Warning 25.5F - - 32F 95 0% - - 100% 1 mhos 0 - Yes - - -
01/22/2017 22:43 Ice Warning 25.5F - - 32F 95 0% - - 100% 1 mhos 0 - Yes - - -
01/22/2017 22:39 Ice Warning 25.5F - - 32F 95 0% - - 100% 1 mhos 0 - Yes - - -
01/22/2017 22:29 Ice Warning 25.3F - - 32F 95 0% - - 100% 1 mhos 0 - Yes - - -
01/22/2017 22:28 Ice Warning 25.3F - - 32F 95 0% - - 100% 1 mhos 0 - Yes - - -
01/22/2017 22:19 Ice Warning 25.3F - - 32F 95 0% - - 100% 1 mhos 0 - Yes - - -
01/22/2017 22:13 Ice Warning 25.3F - - 32F 95 0% - - 100% 1 mhos 0 - Yes - - -
01/22/2017 22:09 Ice Warning 25.3F - - 32F 95 0% - - 100% 0 mhos 0 - Yes - - -
01/22/2017 21:59 Ice Warning 25.2F - - 32F 95 0% - - 100% 0 mhos 0 - Yes - - -
Date/Time
(MST)
Sf
Temp Chem Water Layer Surface Precipitation
Sfc Pvt Sub Frz Factor Pct Dpth DpthThk IcePct Cond Salin FI Type Intens Accum Rate
01/22/2017 21:58 Ice Warning 25.2F - - 32F 95 0% - - 100% 0 mhos 0 - Yes - - -
01/22/2017 21:49 Ice Warning 25.2F - - 32F 80 0% - - 100% 0 mhos 0 - Yes - - -
01/22/2017 21:44 Ice Warning 25.0F - - 32F 90 0% - - 100% 0 mhos 0 - Yes - - -
01/22/2017 21:39 Ice Warning 25.3F - - 32F 60 0% - - 100% 0 mhos 0 - Yes - - -
01/22/2017 21:29 Ice Warning 25.5F - - 32F 5 0% - - 100% 0 mhos 0 - Yes - - -
01/22/2017 21:28 Ice Warning 25.5F - - 32F 5 0% - - 100% 0 mhos 0 - Yes - - -
01/22/2017 21:19 Dry 25.5F - - - - - - - - 0 mhos 0 - Yes - - -
01/22/2017 21:13 Dry 25.5F - - - - - - - - 0 mhos 0 - None None - -
01/22/2017 21:09 Dry 25.5F - - - - - - - - 0 mhos 0 - None None - -
01/22/2017 20:58 Dry 25.5F - - - - - - - - 0 mhos 0 - None None - -
01/22/2017 20:58 Dry 25.5F - - - - - - - - 0 mhos 0 - None None - -
01/22/2017 20:48 Dry 25.7F - - - - - - - - 0 mhos 0 - None None - -
01/22/2017 20:43 Dry 25.7F - - - - - - - - 0 mhos 0 - None None - -
01/22/2017 20:38 Dry 25.7F - - - - - - - - 0 mhos 0 - None None - -
01/22/2017 20:28 Dry 25.7F - - - - - - - - 0 mhos 0 - None None - -
Date/Time
(MST)
Sf
Temp Chem Water Layer Surface Precipitation
Sfc Pvt Sub Frz Factor Pct Dpth DpthThk IcePct Cond Salin FI Type Intens Accum Rate
01/22/2017 20:28 Dry 25.7F - - - - - - - - 0 mhos 0 - None None - -
01/22/2017 20:18 Dry 25.7F - - - - - - - - 0 mhos 0 - None None - -
01/22/2017 20:13 Dry 25.7F - - - - - - - - 0 mhos 0 - None None - -
01/22/2017 20:08 Dry 25.7F - - - - - - - - 0 mhos 0 - None None - -
01/22/2017 19:58 Dry 25.7F - - - - - - - - 0 mhos 0 - None None - -
01/22/2017 19:58 Dry 25.7F - - - - - - - - 0 mhos 0 - None None - -
01/22/2017 19:48 Dry 25.5F - - - - - - - - 0 mhos 0 - None None - -
01/22/2017 19:43 Dry 25.5F - - - - - - - - 0 mhos 0 - None None - -
01/22/2017 19:38 Dry 25.5F - - - - - - - - 0 mhos 0 - None None - -
01/22/2017 19:28 Dry 25.3F - - - - - - - - 0 mhos 0 - None None - -
01/22/2017 19:28 Dry 25.3F - - - - - - - - 0 mhos 0 - None None - -
01/22/2017 19:18 Dry 24.8F - - - - - - - - 0 mhos 0 - None None - -
01/22/2017 19:13 Dry 24.6F - - - - - - - - 0 mhos 0 - None None - -
01/22/2017 19:08 Dry 24.6F - - - - - - - - 0 mhos 0 - None None - -
01/22/2017 18:58 Dry 24.3F - - - - - - - - 0 mhos 0 - None None - -
Date/Time
(MST)
Sf
Temp Chem Water Layer Surface Precipitation
Sfc Pvt Sub Frz Factor Pct Dpth DpthThk IcePct Cond Salin FI Type Intens Accum Rate
01/22/2017 18:58 Dry 24.3F - - - - - - - - 0 mhos 0 - None None - -
01/22/2017 18:48 Dry 24.6F - - - - - - - - 0 mhos 0 - None None - -
01/22/2017 18:43 Dry 24.8F - - - - - - - - 0 mhos 0 - None None - -
01/22/2017 18:38 Dry 25.2F - - - - - - - - 0 mhos 0 - None None - -
01/22/2017 18:29 Dry 25.0F - - - - - - - - 0 mhos 0 - None None - -
01/22/2017 18:28 Dry 25.2F - - - - - - - - 0 mhos 0 - None None - -
01/22/2017 18:18 Dry 25.3F - - - - - - - - 0 mhos 0 - None None - -
01/22/2017 18:14 Dry 25.3F - - - - - - - - 0 mhos 0 - None None - -
01/22/2017 18:08 Dry 25.5F - - - - - - - - 0 mhos 0 - None None - -
01/22/2017 17:58 Dry 25.7F - - - - - - - - 0 mhos 0 - None None - -
01/22/2017 17:57 Dry 25.7F - - - - - - - - 0 mhos 0 - None None - -
01/22/2017 17:47 Dry 26.2F - - - - - - - - 0 mhos 0 - None None - -
01/22/2017 17:43 Dry 26.6F - - - - - - - - 0 mhos 0 - None None - -
01/22/2017 17:37 Dry 26.8F - - - - - - - - 0 mhos 0 - None None - -
01/22/2017 17:28 Dry 27.0F - - - - - - - - 0 mhos 0 - None None - -
Date/Time
(MST)
Sf
Temp Chem Water Layer Surface Precipitation
Sfc Pvt Sub Frz Factor Pct Dpth DpthThk IcePct Cond Salin FI Type Intens Accum Rate
01/22/2017 17:27 Dry 27.0F - - - - - - - - 0 mhos 0 - None None - -
01/22/2017 17:17 Dry 27.5F - - - - - - - - 0 mhos 0 - None None - -
01/22/2017 17:13 Dry 27.9F - - - - - - - - 0 mhos 0 - None None - -
01/22/2017 17:07 Dry 28.0F - - - - - - - - 0 mhos 0 - None None - -
01/22/2017 16:58 Dry 29.1F - - - - - - - - 0 mhos 0 - None None - -
01/22/2017 16:57 Dry 29.1F - - - - - - - - 0 mhos 0 - None None - -
01/22/2017 16:47 Dry 30.0F - - - - - - - - 0 mhos 0 - None None - -
01/22/2017 16:43 Dry 30.0F - - - - - - - - 0 mhos 0 - None None - -
01/22/2017 16:37 Dry 30.2F - - - - - - - - 0 mhos 0 - None None - -
01/22/2017 16:28 Dry 30.6F - - - - - - - - 0 mhos 0 - None None - -
01/22/2017 16:27 Dry 30.6F - - - - - - - - 0 mhos 0 - None None - -
01/22/2017 16:17 Dry 31.3F - - - - - - - - 0 mhos 0 - None None - -
01/22/2017 16:13 Dry 31.6F - - - - - - - - 0 mhos 0 - None None - -
01/22/2017 16:07 Dry 32.9F - - - - - - - - 0 mhos 0 - None None - -
01/22/2017 15:58 Dry 34.9F - - - - - - - - 0 mhos 0 - None None - -
Date/Time
(MST)
Sf
Temp Chem Water Layer Surface Precipitation
Sfc Pvt Sub Frz Factor Pct Dpth DpthThk IcePct Cond Salin FI Type Intens Accum Rate
01/22/2017 15:57 Dry 35.2F - - - - - - - - 0 mhos 0 - None None - -
01/22/2017 15:47 Dry 39.7F - - - - - - - - 0 mhos 0 - None None - -
01/22/2017 15:44 Dry 40.1F - - - - - - - - 0 mhos 0 - None None - -
01/22/2017 15:37 Dry 40.5F - - - - - - - - 0 mhos 0 - None None - -
01/22/2017 15:28 Dry 39.7F - - - - - - - - 0 mhos 0 - None None - -
01/22/2017 15:27 Dry 39.4F - - - - - - - - 0 mhos 0 - None None - -
01/22/2017 15:17 Dry 38.1F - - - - - - - - 0 mhos 0 - None None - -
01/22/2017 15:14 Dry 37.2F - - - - - - - - 0 mhos 0 - None None - -
01/22/2017 15:06 Dry 35.8F - - - - - - - - 0 mhos 0 - None None - -
01/22/2017 14:59 Dry 39.0F - - - - - - - - 0 mhos 0 - None None - -
01/22/2017 14:56 Dry 39.9F - - - - - - - - 0 mhos 0 - None None - -
01/22/2017 14:46 Dry 40.5F - - - - - - - - 0 mhos 0 - None None - -
01/22/2017 14:43 Dry 41.0F - - - - - - - - 0 mhos 0 - None None - -
01/22/2017 14:36 Dry 40.8F - - - - - - - - 0 mhos 0 - None None - -
01/22/2017 14:29 Dry 41.2F - - - - - - - - 0 mhos 0 - None None - -
Date/Time
(MST)
Sf
Temp Chem Water Layer Surface Precipitation
Sfc Pvt Sub Frz Factor Pct Dpth DpthThk IcePct Cond Salin FI Type Intens Accum Rate
01/22/2017 14:26 Dry 41.2F - - - - - - - - 0 mhos 0 - None None - -
01/22/2017 14:16 Dry 40.8F - - - - - - - - 0 mhos 0 - None None - -
01/22/2017 14:14 Dry 40.6F - - - - - - - - 0 mhos 0 - None None - -
01/22/2017 14:06 Dry 40.5F - - - - - - - - 0 mhos 0 - None None - -
01/22/2017 13:59 Dry 39.9F - - - - - - - - 0 mhos 0 - None None - -
01/22/2017 13:56 Dry 39.2F - - - - - - - - 0 mhos 0 - None None - -
01/22/2017 13:46 Dry 40.1F - - - - - - - - 0 mhos 0 - None None - -
01/22/2017 13:43 Dry 40.8F - - - - - - - - 0 mhos 0 - None None - -
01/22/2017 13:36 Dry 41.7F - - - - - - - - 0 mhos 0 - None None - -
01/22/2017 13:28 Dry 41.5F - - - - - - - - 0 mhos 0 - None None - -
01/22/2017 13:26 Dry 41.9F - - - - - - - - 0 mhos 0 - None None - -
01/22/2017 13:16 Dry 41.4F - - - - - - - - 0 mhos 0 - None None - -
01/22/2017 13:13 Dry 41.2F - - - - - - - - 0 mhos 0 - None None - -
01/22/2017 13:06 Dry 40.5F - - - - - - - - 0 mhos 0 - None None - -
01/22/2017 12:59 Dry 40.1F - - - - - - - - 0 mhos 0 - None None - -
Date/Time
(MST)
Sf
Temp Chem Water Layer Surface Precipitation
Sfc Pvt Sub Frz Factor Pct Dpth DpthThk IcePct Cond Salin FI Type Intens Accum Rate
01/22/2017 12:56 Dry 39.9F - - - - - - - - 0 mhos 0 - None None - -
01/22/2017 12:46 Dry 39.6F - - - - - - - - 0 mhos 0 - None None - -
01/22/2017 12:43 Dry 39.0F - - - - - - - - 0 mhos 0 - None None - -
01/22/2017 12:36 Dry 38.5F - - - - - - - - 0 mhos 0 - None None - -
01/22/2017 12:28 Dry 38.3F - - - - - - - - 0 mhos 0 - None None - -
01/22/2017 12:26 Dry 37.4F - - - - - - - - 0 mhos 0 - None None - -
01/22/2017 12:16 Dry 36.7F - - - - - - - - 0 mhos 0 - None None - -
01/22/2017 12:13 Dry 36.5F - - - - - - - - 0 mhos 0 - None None - -
01/22/2017 12:05 Dry 36.1F - - - - - - - - 0 mhos 0 - None None - -
01/22/2017 11:58 Dry 35.4F - - - - - - - - 0 mhos 0 - None None - -
01/22/2017 11:55 Dry 35.1F - - - - - - - - 0 mhos 0 - None None - -
01/22/2017 11:45 Dry 34.3F - - - - - - - - 0 mhos 0 - None None - -
01/22/2017 11:43 Dry 34.2F - - - - - - - - 0 mhos 0 - None None - -
01/22/2017 11:35 Dry 32.7F - - - - - - - - 0 mhos 0 - None None - -
01/22/2017 11:28 Dry 31.5F - - - - - - - - 0 mhos 0 - None None - -
Date/Time
(MST)
Sf
Temp Chem Water Layer Surface Precipitation
Sfc Pvt Sub Frz Factor Pct Dpth DpthThk IcePct Cond Salin FI Type Intens Accum Rate
01/22/2017 11:25 Dry 31.1F - - - - - - - - 0 mhos 0 - None None - -
01/22/2017 11:15 Dry 30.2F - - - - - - - - 0 mhos 0 - None None - -
01/22/2017 11:13 Dry 30.2F - - - - - - - - 0 mhos 0 - None None - -
01/22/2017 11:05 Dry 29.7F - - - - - - - - 0 mhos 0 - None None - -
01/22/2017 10:58 Dry 29.1F - - - - - - - - 0 mhos 0 - None None - -
01/22/2017 10:55 Dry 28.6F - - - - - - - - 0 mhos 0 - None None - -
01/22/2017 10:45 Dry 26.8F - - - - - - - - 0 mhos 0 - None None - -
01/22/2017 10:43 Dry 26.8F - - - - - - - - 0 mhos 0 - None None - -
01/22/2017 10:35 Dry 25.7F - - - - - - - - 0 mhos 0 - None None - -
01/22/2017 10:28 Dry 24.6F - - - - - - - - 0 mhos 0 - None None - -
01/22/2017 10:25 Dry 24.1F - - - - - - - - 0 mhos 0 - None None - -
01/22/2017 10:15 Dry 23.4F - - - - - - - - 0 mhos 0 - None None - -
01/22/2017 10:13 Dry 23.2F - - - - - - - - 0 mhos 0 - None None - -
01/22/2017 10:05 Dry 22.8F - - - - - - - - 0 mhos 0 - None None - -
01/22/2017 09:58 Dry 22.3F - - - - - - - - 0 mhos 0 - None None - -
Date/Time
(MST)
Sf
Temp Chem Water Layer Surface Precipitation
Sfc Pvt Sub Frz Factor Pct Dpth DpthThk IcePct Cond Salin FI Type Intens Accum Rate
01/22/2017 09:55 Dry 22.5F - - - - - - - - 0 mhos 0 - None None - -
01/22/2017 09:45 Dry 20.3F - - - - - - - - 0 mhos 0 - None None - -
01/22/2017 09:43 Dry 19.8F - - - - - - - - 0 mhos 0 - None None - -
01/22/2017 09:35 Ice Watch 18.3F - - - 5 - - - - 0 mhos 0 - None None - -
01/22/2017 09:28 Ice Watch 17.2F - - - 5 - - - - 0 mhos 0 - None None - -
01/22/2017 09:25 Ice Watch 16.9F - - - 5 - - - - 0 mhos 0 - None None - -
01/22/2017 09:14 Ice Watch 15.6F - - - 5 - - - - 0 mhos 0 - None None - -
01/22/2017 09:13 Ice Watch 15.3F - - - 5 - - - - 0 mhos 0 - None None - -
01/22/2017 09:04 Ice Watch 14.0F - - - 5 - - - - 0 mhos 0 - None None - -
01/22/2017 08:58 Ice Watch 13.1F - - - 5 - - - - 0 mhos 0 - None None - -
01/22/2017 08:54 Ice Watch 12.9F - - - 5 - - - - 0 mhos 0 - None None - -
01/22/2017 08:44 Ice Watch 12.9F - - - 5 - - - - 0 mhos 0 - None None - -
01/22/2017 08:43 Ice Watch 12.7F - - - 5 - - - - 0 mhos 0 - None None - -
01/22/2017 08:34 Ice Watch 13.1F - - - 5 - - - - 0 mhos 0 - None None - -
01/22/2017 08:28 Ice Watch 13.5F - - - 5 - - - - 0 mhos 0 - None None - -
Date/Time
(MST)
Sf
Temp Chem Water Layer Surface Precipitation
Sfc Pvt Sub Frz Factor Pct Dpth DpthThk IcePct Cond Salin FI Type Intens Accum Rate
01/22/2017 08:24 Ice Watch 13.6F - - - 5 - - - - 0 mhos 0 - None None - -
01/22/2017 08:14 Ice Watch 13.5F - - - 5 - - - - 0 mhos 0 - None None - -
01/22/2017 08:13 Ice Watch 13.5F - - - 5 - - - - 0 mhos 0 - None None - -
01/22/2017 08:04 Ice Watch 12.7F - - - 5 - - - - 0 mhos 0 - None None - -
01/22/2017 07:58 Ice Watch 12.2F - - - 5 - - - - 0 mhos 0 - None None - -
01/22/2017 07:54 Ice Watch 11.8F - - - 5 - - - - 0 mhos 0 - None None - -
01/22/2017 07:44 Ice Watch 11.8F - - - 5 - - - - 0 mhos 0 - None None - -
01/22/2017 07:43 Ice Watch 11.8F - - - 5 - - - - 0 mhos 0 - None None - -
01/22/2017 07:34 Ice Watch 11.7F - - - 5 - - - - 0 mhos 0 - None None - -
01/22/2017 07:28 Ice Watch 11.7F - - - 5 - - - - 0 mhos 0 - None None - -
01/22/2017 07:24 Ice Watch 11.7F - - - 5 - - - - 0 mhos 0 - None None - -
01/22/2017 07:14 Ice Watch 11.8F - - - 5 - - - - 0 mhos 0 - None None - -
01/22/2017 07:13 Ice Watch 11.8F - - - 5 - - - - 0 mhos 0 - None None - -
01/22/2017 07:04 Ice Watch 11.8F - - - 5 - - - - 0 mhos 0 - None None - -
01/22/2017 06:58 Ice Watch 12.2F - - - 5 - - - - 0 mhos 0 - None None - -
Date/Time
(MST)
Sf
Temp Chem Water Layer Surface Precipitation
Sfc Pvt Sub Frz Factor Pct Dpth DpthThk IcePct Cond Salin FI Type Intens Accum Rate
01/22/2017 06:54 Ice Watch 12.2F - - - 5 - - - - 0 mhos 0 - None None - -
01/22/2017 06:44 Ice Watch 12.2F - - - 5 - - - - 0 mhos 0 - None None - -
01/22/2017 06:43 Ice Watch 12.2F - - - 5 - - - - 0 mhos 0 - None None - -
01/22/2017 06:34 Ice Watch 12.2F - - - 5 - - - - 0 mhos 0 - None None - -
01/22/2017 06:28 Ice Watch 12.2F - - - 5 - - - - 0 mhos 0 - None None - -
01/22/2017 06:23 Ice Watch 12.6F - - - 5 - - - - 0 mhos 0 - None None - -
01/22/2017 06:13 Ice Watch 13.1F - - - 5 - - - - 0 mhos 0 - None None - -
01/22/2017 06:03 Ice Watch 13.3F - - - 5 - - - - 0 mhos 0 - None None - -
01/22/2017 05:58 Ice Watch 13.3F - - - 5 - - - - 0 mhos 0 - None None - -
01/22/2017 05:53 Dry 13.3F - - - - - - - - 0 mhos 0 - None None - -
01/22/2017 05:43 Dry 14.2F - - - - - - - - 0 mhos 0 - None None - -
01/22/2017 05:43 Dry 14.2F - - - - - - - - 0 mhos 0 - None None - -
Change End Date:

Copyright © 1998-2015 Vaisala, Inc.
All Rights Reserved
Send comments about the data to:
SCAN Web ® is a registered trademark of Vaisala, Inc.
SCAN Web Version 6.0